DATE/TIME(UTC),Outside Humidity (),Outside Temperature (),Lat. , Long.,Direction / Angle (),Direction / Angle (),Speed (ground - true North),Speed (Apparent),Barometric Pressure ()
Jul-14-2019 00:00:00,89.752,16.910000000000025,31.1757316,-120.92716659999999,323.78990918433084,35.786943883871224,7.1922246220302375,1.4967602591792657,1010
Jul-14-2019 00:00:15,89.752,16.860000000000014,31.175665,-120.927095,336.0913130457896,247.31723226821987,8.086393088552915,0.777537796976242,1010
Jul-14-2019 00:00:30,89.912,16.920000000000016,31.1755933,-120.92702659999999,335.7933749923216,185.27736221145432,4.587473002159827,1.3606911447084236,1010
Jul-14-2019 00:00:45,89.83200000000001,16.860000000000014,31.175543299999998,-120.9269516,331.19252389742104,247.21982944304762,6.29805615550756,5.190064794816414,1010
Jul-14-2019 00:01:00,89.512,16.890000000000043,31.1754866,-120.92688829999999,338.3888738042642,238.27022868310414,6.49244060475162,3.9460043196544277,1010
Jul-14-2019 00:01:15,89.432,16.910000000000025,31.1754383,-120.92688659999999,321.4923484258562,244.30920384378305,3.5961123110151187,2.760259179265659,1010
Jul-14-2019 00:01:30,89.592,16.920000000000016,31.17539,-120.926925,338.29147097909197,229.07425607125444,5.889848812095033,5.94816414686825,1010
Jul-14-2019 00:01:45,89.672,16.950000000000045,31.1753483,-120.92693999999999,342.7891896708689,241.1522063926122,7.4838012958963285,7.406047516198704,1010
Jul-14-2019 00:02:00,90.312,16.910000000000025,31.175295,-120.9269666,346.08942657082247,231.71559150680753,8.688984881209503,6.667386609071275,1010
Jul-14-2019 00:02:15,90.712,16.900000000000034,31.175228299999997,-120.92697159999999,343.88926863752016,230.7129153653286,10.380129589632828,3.0518358531317493,1010
Jul-14-2019 00:02:30,90.632,16.920000000000016,31.1751516,-120.92693829999999,342.98972489916474,249.62052260464577,11.779697624190065,2.2937365010799136,1010
Jul-14-2019 00:02:45,90.392,16.79000000000002,31.175073299999998,-120.92689329999999,342.1933135639329,210.32707701457392,11.196544276457884,2.5658747300215983,1010
Jul-14-2019 00:03:00,89.912,16.910000000000025,31.174989999999998,-120.9268383,345.5909532890587,224.06087536385974,8.397408207343414,4.509719222462203,1010
Jul-14-2019 00:03:15,89.992,16.960000000000036,31.174911599999998,-120.92677499999999,340.1936908589263,239.28436398048572,11.079913606911447,4.879049676025918,1010
Jul-14-2019 00:03:30,89.912,16.960000000000036,31.1748466,-120.9267266,338.3888738042642,242.02310224121103,7.095032397408207,3.4989200863930883,1010
Jul-14-2019 00:03:45,89.992,16.870000000000005,31.1747733,-120.92665,316.9946297340793,252.7889792117192,6.181425485961123,2.8380129589632825,1010
Jul-14-2019 00:04:00,90.392,16.900000000000034,31.174705,-120.9265566,327.9896898226398,252.26185804019886,8.786177105831534,7.347732181425486,1010
Jul-14-2019 00:04:15,90.072,16.960000000000036,31.174654999999998,-120.926465,339.19101471744733,247.46047171700255,7.4838012958963285,2.5075593952483803,1010
Jul-14-2019 00:04:30,89.912,16.80000000000001,31.17459,-120.92638,341.88964593251353,63.38632087532298,10.885529157667388,1.8077753779697625,1010
Jul-14-2019 00:04:45,89.992,16.880000000000052,31.174519999999998,-120.9263,343.88926863752016,112.29399826769006,11.585313174946004,1.0496760259179267,1010
Jul-14-2019 00:05:00,89.83200000000001,16.840000000000032,31.1744666,-120.92622829999999,341.59170787904554,77.63578124022655,11.390928725701944,1.4384449244060475,1010
Jul-14-2019 00:05:15,89.592,16.880000000000052,31.174405,-120.9261183,329.98931252764635,101.03537759336938,7.3866090712742976,0.9913606911447085,1010
Jul-14-2019 00:05:30,89.512,16.910000000000025,31.174358299999998,-120.9260066,337.89040052250044,141.3314993249202,9.58315334773218,1.7688984881209504,1010
Jul-14-2019 00:05:45,89.432,17.100000000000023,31.174294999999997,-120.92591329999999,336.7903215558492,19.532131236009768,9.291576673866091,2.799136069114471,1010
Jul-14-2019 00:06:00,89.432,17.05000000000001,31.1742183,-120.925815,344.29033909411174,226.99441927492956,8.397408207343414,3.168466522678186,1010
Jul-14-2019 00:06:15,89.352,17.02000000000004,31.1741766,-120.92572159999999,337.3919272407366,318.0087650314608,7.794816414686824,4.859611231101511,1010
Jul-14-2019 00:06:30,88.872,16.890000000000043,31.1741066,-120.9256133,322.39189216421164,234.44860018958155,9.79697624190065,6.570194384449244,1010
Jul-14-2019 00:06:45,88.392,16.880000000000052,31.1740383,-120.9254866,326.39113757422473,194.4389573555962,7.989200863930886,1.4773218142548596,1010
Jul-14-2019 00:07:00,88.47200000000001,16.840000000000032,31.173978299999998,-120.9253516,315.0924098542449,251.25345232076862,10.282937365010799,8.125269978401727,1010
Jul-14-2019 00:07:15,88.632,16.82000000000005,31.1739066,-120.92522,324.3915148692182,242.1949895797503,9.991360691144708,4.37365010799136,1010
Jul-14-2019 00:07:30,89.032,16.950000000000045,31.173834999999997,-120.9250833,320.4896722843773,240.98604863202425,10.788336933045356,9.60259179265659,1010
Jul-14-2019 00:07:45,89.272,16.99000000000001,31.173753299999998,-120.9249516,318.3926467541985,232.89588456477702,11.488120950323973,3.323974082073434,1010
Jul-14-2019 00:08:00,89.592,17.010000000000048,31.1736816,-120.9248416,318.9942524390858,214.23464917736612,8.494600431965443,1.4578833693304536,1010
Jul-14-2019 00:08:15,89.992,16.82000000000005,31.1736166,-120.924725,321.4923484258562,187.87286102339695,9.194384449244062,1.7105831533477323,1010
Jul-14-2019 00:08:30,90.232,16.80000000000001,31.1735716,-120.92461499999999,317.4931030158431,223.8145035119535,7.989200863930886,3.6544276457883367,1010
Jul-14-2019 00:08:45,90.312,16.83000000000004,31.173505,-120.924495,325.69212906416516,234.85540022412445,6.181425485961123,3.323974082073434,1010
Jul-14-2019 00:09:00,90.312,16.850000000000023,31.1734516,-120.9243683,320.4896722843773,242.46427974346176,6.49244060475162,1.1274298056155507,1010
Jul-14-2019 00:09:15,90.392,16.850000000000023,31.1733816,-120.9242333,322.0939541107436,249.6319817605484,6.29805615550756,1.205183585313175,1010
Jul-14-2019 00:09:30,90.712,16.910000000000025,31.1733016,-120.9240966,337.19139201244076,238.32179488466593,6.68682505399568,4.2570194384449245,1010
Jul-14-2019 00:09:45,90.792,16.870000000000005,31.173215,-120.92397,330.8888562660017,283.6542156354167,9.388768898488122,1.8272138228941683,1010
Jul-14-2019 00:10:00,90.312,16.79000000000002,31.1731283,-120.923875,339.09361189227513,242.67627412766018,10.496760259179267,4.295896328293737,1010
Jul-14-2019 00:10:15,90.392,16.860000000000014,31.173038299999998,-120.9237533,338.58940903256,236.53416656385778,9.194384449244062,5.501079913606912,1010
Jul-14-2019 00:10:30,90.072,16.78000000000003,31.172951599999998,-120.92367999999999,335.094366482262,257.65912047033123,5.695464362850972,3.829373650107991,1010
Jul-14-2019 00:10:45,90.152,16.950000000000045,31.172874999999998,-120.92362659999999,340.1936908589263,202.32858619454763,10.691144708423327,3.0712742980561556,1010
Jul-14-2019 00:11:00,90.47200000000001,16.80000000000001,31.172805,-120.92356,339.4889527709154,243.21485445508318,11.293736501079914,9.077753779697625,1010
Jul-14-2019 00:11:15,90.312,16.80000000000001,31.1727033,-120.9234733,336.4923835023812,240.88291622890074,12.187904967602593,9.758099352051836,1010
Jul-14-2019 00:11:30,90.312,16.910000000000025,31.1725733,-120.92336499999999,342.39384879222865,230.02536601117163,15.589632829373649,10.730021598272138,1010
Jul-14-2019 00:11:45,89.752,16.850000000000023,31.172443299999998,-120.92327999999999,340.29109368409854,235.8007805860903,15.29805615550756,10.904967602591794,1010
Jul-14-2019 00:12:00,89.752,16.920000000000016,31.172314999999998,-120.92321829999999,348.28958450412483,228.3981658730001,14.59827213822894,9.680345572354213,1010
Jul-14-2019 00:12:15,90.312,16.900000000000034,31.172189999999997,-120.923155,345.9920237456503,230.59832380630243,13.393088552915769,9.758099352051836,1010
Jul-14-2019 00:12:30,90.952,17.120000000000005,31.172069999999998,-120.92311,337.89040052250044,212.36107718728834,14.481641468682506,11.429805615550757,1010
Jul-14-2019 00:12:45,90.632,16.78000000000003,31.1719516,-120.923085,338.1940681539197,210.88857565380212,16.19222462203024,6.181425485961123,1010
Jul-14-2019 00:13:00,90.072,16.83000000000004,31.1718466,-120.9230566,335.7933749923216,188.41144135081993,14.695464362850972,5.034557235421166,1010
Jul-14-2019 00:13:15,89.83200000000001,16.730000000000018,31.171741599999997,-120.9230333,333.793752287315,196.12918285123212,15.881209503239742,9.116630669546439,1010
Jul-14-2019 00:13:30,89.19200000000001,16.660000000000025,31.1716166,-120.92299829999999,333.59321705901925,187.51762719041585,14.481641468682506,7.872570194384449,1010
Jul-14-2019 00:13:45,89.19200000000001,16.660000000000025,31.1714816,-120.92295499999999,327.789154594344,175.31935573208062,13.781857451403887,11.779697624190065,1010
Jul-14-2019 00:14:00,89.432,16.700000000000045,31.171335,-120.922885,323.4919711308628,185.03099035954807,13.684665226781858,8.377969762419008,1010
Jul-14-2019 00:14:15,89.19200000000001,16.660000000000025,31.1711933,-120.92281159999999,322.19135693591585,183.99966632831257,14.695464362850972,9.563714902807774,1010
Jul-14-2019 00:14:30,88.872,16.700000000000045,31.171065,-120.9227583,321.29181319756043,194.94888979326262,14.384449244060475,7.61987041036717,1010
Jul-14-2019 00:14:45,88.952,16.730000000000018,31.170943299999998,-120.9227133,318.79371721079,194.13528972417683,14.190064794816413,8.26133909287257,1010
Jul-14-2019 00:15:00,89.032,16.74000000000001,31.1708166,-120.9226533,322.993497849099,206.9695443351073,15.589632829373649,9.174946004319654,1010
Jul-14-2019 00:15:15,88.712,16.77000000000004,31.1707066,-120.9225816,323.78990918433084,208.5279895378631,14.987041036717065,8.766738660907127,1010
Jul-14-2019 00:15:30,88.792,16.940000000000055,31.170595,-120.92253,324.09357681575017,210.0405981170085,14.59827213822894,9.233261339092872,1010
Jul-14-2019 00:15:45,88.872,16.99000000000001,31.1704883,-120.92245829999999,326.39113757422473,220.00433417433354,15.881209503239742,9.466522678185745,1010
Jul-14-2019 00:16:00,88.712,16.940000000000055,31.170375,-120.92237329999999,330.39038298423793,214.06276183882687,14.695464362850972,11.157667386609072,1010
Jul-14-2019 00:16:15,88.712,17.07000000000005,31.1702516,-120.92228829999999,331.0893914942975,219.42564680125136,12.79049676025918,9.622030237580994,1010
Jul-14-2019 00:16:30,89.032,17.090000000000032,31.1701466,-120.92220329999999,325.89266429246095,216.01081834227168,13.08207343412527,9.330453563714903,1010
Jul-14-2019 00:16:45,89.432,17.360000000000014,31.1700366,-120.9221183,326.68907562769283,212.65328566280505,12.498920086393088,8.84449244060475,1010
Jul-14-2019 00:17:00,89.592,17.57000000000005,31.169931599999998,-120.922035,329.08976878929093,217.2655959136082,14.092872570194382,12.401727861771057,1010
Jul-14-2019 00:17:15,89.272,17.32000000000005,31.169829999999997,-120.9219483,327.29068131258015,210.84273903019167,12.382289416846653,11.196544276457884,1010
Jul-14-2019 00:17:30,89.032,17.260000000000048,31.169719999999998,-120.9218683,329.78877729935056,217.8958494882521,13.490280777537798,8.514038876889849,1010
Jul-14-2019 00:17:45,89.112,17.340000000000032,31.1696033,-120.9218116,329.3934364207103,216.06811412178476,11.682505399568033,9.563714902807774,1010
Jul-14-2019 00:18:00,88.792,17.060000000000002,31.169498299999997,-120.9217566,328.39076027923136,207.85762891756005,13.295896328293736,6.822894168466523,1010
Jul-14-2019 00:18:15,88.952,17.210000000000036,31.169391599999997,-120.92168,338.0909357507962,211.7709306583036,13.295896328293736,3.4600431965442766,1010
Jul-14-2019 00:18:30,89.19200000000001,17.120000000000005,31.169281599999998,-120.92161159999999,338.7899442608558,227.84239681172318,14.59827213822894,7.4838012958963285,1010
Jul-14-2019 00:18:45,89.032,17.07000000000005,31.1691883,-120.9215483,341.79224310734133,226.35843612233435,15.181425485961126,9.54427645788337,1010
Jul-14-2019 00:19:00,89.19200000000001,16.960000000000036,31.169083299999997,-120.92147159999999,338.0909357507962,227.08036294419918,15.78401727861771,10.904967602591794,1010
Jul-14-2019 00:19:15,89.352,16.910000000000025,31.168983299999997,-120.921405,344.3934714972353,229.3378166570146,16.48380129589633,7.853131749460044,1010
Jul-14-2019 00:19:30,89.83200000000001,16.860000000000014,31.168875,-120.9213333,341.99277833563707,232.25990141218182,17.28077753779698,8.883369330453565,1010
Jul-14-2019 00:19:45,90.232,16.870000000000005,31.168785,-120.92125829999999,340.29109368409854,231.1884703352872,16.19222462203024,7.367170626349893,1010
Jul-14-2019 00:20:00,90.392,16.880000000000052,31.1686883,-120.9211833,346.69103225570984,225.35003040290408,13.995680345572353,3.0907127429805614,1010
Jul-14-2019 00:20:15,89.992,16.79000000000002,31.168574999999997,-120.9211266,346.08942657082247,229.90504487419415,16.989200863930886,11.488120950323973,1010
Jul-14-2019 00:20:30,89.912,17.08000000000004,31.1684566,-120.92107499999999,339.29414712057087,201.62957768448803,15.492440604751618,9.388768898488122,1010
Jul-14-2019 00:20:45,90.312,16.980000000000018,31.1683116,-120.9210433,331.79412958230847,175.9438797287732,14.695464362850972,12.59611231101512,1010
Jul-14-2019 00:21:00,90.312,16.710000000000036,31.1681866,-120.921055,326.0931995207568,157.0935682689691,16.095032397408207,12.868250539956804,1010
Jul-14-2019 00:21:15,90.872,17.05000000000001,31.1680833,-120.921095,315.79141836430455,139.9564006166062,16.58099352051836,8.86393088552916,1010
Jul-14-2019 00:21:30,91.11200000000001,16.940000000000055,31.1679833,-120.92116329999999,316.69096210265997,117.00371134366542,17.183585313174948,14.267818574514038,1010
Jul-14-2019 00:21:45,90.072,16.860000000000014,31.167894999999998,-120.92120159999999,327.3938137157037,98.25653228698488,17.883369330453565,14.539956803455723,1010
Jul-14-2019 00:22:00,89.912,16.750000000000057,31.1678283,-120.92124,331.49046195088914,87.26720177637569,14.889848812095034,10.224622030237581,1010
Jul-14-2019 00:22:15,89.992,16.80000000000001,31.167785,-120.9213116,325.39419101069717,72.65104842258839,15.084233261339092,12.751619870410368,1010
Jul-14-2019 00:22:30,91.352,16.680000000000007,31.167736599999998,-120.9214166,334.6932960256704,59.35842757555329,15.29805615550756,12.168466522678184,1010
Jul-14-2019 00:22:45,91.58800000000001,16.600000000000023,31.167724999999997,-120.9215133,338.69254143568355,43.602088209455644,14.792656587473003,14.617710583153347,1010
Jul-14-2019 00:23:00,91.748,16.630000000000052,31.1677233,-120.9215816,343.2933925305841,30.263630738810082,12.187904967602593,12.576673866090712,1010
Jul-14-2019 00:23:15,91.988,16.660000000000025,31.167765,-120.921675,333.89115511248724,2.2288058230589027,10.282937365010799,9.077753779697625,1010
Jul-14-2019 00:23:30,92.148,16.650000000000034,31.1678166,-120.9217,341.488575475922,349.0401592157462,9.79697624190065,8.222462203023758,1010
Jul-14-2019 00:23:45,91.988,16.52000000000004,31.1678416,-120.92170329999999,340.6921641406901,335.33500875621695,11.293736501079914,8.70842332613391,1010
Jul-14-2019 00:24:00,91.908,16.54000000000002,31.167894999999998,-120.92172,339.7926204023347,340.79529654381366,10.593952483801296,7.464362850971922,1010
Jul-14-2019 00:24:15,92.148,16.610000000000014,31.167984999999998,-120.9217566,325.39419101069717,338.36595549245897,10.282937365010799,7.639308855291577,1010
Jul-14-2019 00:24:30,92.388,16.680000000000007,31.168078299999998,-120.9217833,345.7914885173544,6.6806878912254,11.779697624190065,12.401727861771057,1010
Jul-14-2019 00:24:45,92.388,16.720000000000027,31.1681566,-120.9218466,356.59174295557045,27.553540367841293,12.79049676025918,14.248380129589634,1010
Jul-14-2019 00:25:00,92.464,16.77000000000004,31.168229999999998,-120.9219133,11.396130545152076,34.56081420229126,13.393088552915769,17.805615550755938,1010
Jul-14-2019 00:25:15,91.58800000000001,16.600000000000023,31.1683083,-120.92202499999999,7.299482309966689,39.081451205873456,15.78401727861771,18.05831533477322,1010
Jul-14-2019 00:25:30,91.748,16.57000000000005,31.168396599999998,-120.92215159999999,8.794902155258136,29.87401943812112,13.587473002159827,15.473002159827216,1010
Jul-14-2019 00:25:45,92.624,16.670000000000016,31.168486599999998,-120.92228999999999,16.799122553235737,31.999692858056477,14.695464362850972,16.153347732181427,1010
Jul-14-2019 00:26:00,93.104,16.670000000000016,31.168593299999998,-120.9224316,10.296051578500892,29.10052641469451,14.190064794816413,14.20950323974082,1010
Jul-14-2019 00:26:15,93.184,16.700000000000045,31.168705,-120.9225633,8.095893645198533,29.77088703499758,14.092872570194382,17.300215982721383,1010
Jul-14-2019 00:26:30,93.024,16.690000000000055,31.1688083,-120.92269329999999,1.1974817918234206,23.382407619288895,13.587473002159827,12.362850971922246,1010
Jul-14-2019 00:26:45,92.944,16.680000000000007,31.1689333,-120.92277829999999,4.698253920072751,23.63450904914646,12.693304535637148,11.779697624190065,1010
Jul-14-2019 00:27:00,92.944,16.58000000000004,31.169055,-120.92285659999999,7.196349906843141,15.853742191269879,12.79049676025918,9.60259179265659,1010
Jul-14-2019 00:27:15,92.388,16.410000000000025,31.169189999999997,-120.9229383,3.9992454100131463,25.73726415727658,10.982721382289418,10.282937365010799,1010
Jul-14-2019 00:27:30,91.988,16.470000000000027,31.169304999999998,-120.9230133,6.594744221955775,25.273168343220615,10.982721382289418,9.524838012958964,1010
Jul-14-2019 00:27:45,92.22800000000001,16.610000000000014,31.169416599999998,-120.9231066,1.0943493886998725,32.98518026568149,10.788336933045356,10.652267818574515,1010
Jul-14-2019 00:28:00,92.944,16.750000000000057,31.1695066,-120.92318829999999,4.795656745244991,33.071123934951125,10.885529157667388,14.676025917926564,1010
Jul-14-2019 00:28:15,93.66,16.82000000000005,31.169615,-120.92327499999999,10.995060088560498,41.50506267927683,11.8963282937365,14.092872570194382,1010
Jul-14-2019 00:28:30,93.42,16.74000000000001,31.1697083,-120.92336329999999,24.895016198434266,38.21628493522591,12.79049676025918,15.99784017278618,1010
Jul-14-2019 00:28:45,93.184,16.730000000000018,31.169794999999997,-120.92345999999999,9.098569786677473,31.117337853555014,12.59611231101512,17.028077753779698,1010
Jul-14-2019 00:29:00,93.9,16.83000000000004,31.16988,-120.923555,9.29910501497326,33.47219439154269,13.490280777537798,18.311015118790497,1010
Jul-14-2019 00:29:15,94.61200000000001,16.950000000000045,31.1699633,-120.92362659999999,355.8927344455108,10.53669385245584,10.982721382289418,4.665226781857451,1010
Jul-14-2019 00:29:30,94.532,16.750000000000057,31.1700266,-120.92367,355.99013727068314,23.485540022412447,15.181425485961126,12.693304535637148,1010
Jul-14-2019 00:29:45,93.024,16.560000000000002,31.170083299999998,-120.92372499999999,355.78960204238734,27.45040796471774,14.59827213822894,13.08207343412527,1010
Jul-14-2019 00:30:00,92.308,16.53000000000003,31.170144999999998,-120.92377499999999,359.891979855524,18.41486353550466,14.987041036717065,11.50755939524838,1010
Jul-14-2019 00:30:15,92.22800000000001,16.560000000000002,31.1702183,-120.9238216,10.095516350205104,24.196007688374664,14.190064794816413,11.974082073434126,1010
Jul-14-2019 00:30:30,92.624,16.650000000000034,31.170303299999997,-120.9239016,0.6990085100596044,27.702509394575305,14.889848812095034,16.17278617710583,1010
Jul-14-2019 00:30:45,92.548,16.710000000000036,31.170379999999998,-120.92398499999999,352.99356800214895,22.56307797225182,14.092872570194382,12.848812095032399,1010
Jul-14-2019 00:31:00,92.388,16.630000000000052,31.170463299999998,-120.92406659999999,350.39233961225494,14.873984361596172,13.587473002159827,9.194384449244062,1010
Jul-14-2019 00:31:15,92.464,16.610000000000014,31.170546599999998,-120.9241366,351.0913481223145,6.250969544877282,11.682505399568033,9.524838012958964,1010
Jul-14-2019 00:31:30,93.024,16.670000000000016,31.1706333,-120.92421499999999,346.8915674840057,9.516828977122973,10.982721382289418,7.950323974082073,1010
Jul-14-2019 00:31:45,93.104,16.620000000000005,31.1707216,-120.9242716,355.8927344455108,16.621505636745184,11.079913606911447,8.475161987041037,1010
Jul-14-2019 00:32:00,92.464,16.57000000000005,31.1708033,-120.92434159999999,348.5932521355442,10.599719209920229,12.285097192224622,9.777537796976242,1010
Jul-14-2019 00:32:15,92.624,16.630000000000052,31.1709,-120.92439329999999,4.898789148368539,24.276221779692982,12.98488120950324,14.539956803455723,1010
Jul-14-2019 00:32:30,92.784,16.710000000000036,31.1709933,-120.9244466,2.3949635836468413,26.058120522549842,12.187904967602593,8.028077753779696,1010
Jul-14-2019 00:32:45,92.624,16.600000000000023,31.17107,-120.924505,11.098192491684046,25.685697955714808,11.8963282937365,12.440604751619873,1010
Jul-14-2019 00:33:00,91.668,16.470000000000027,31.171143299999997,-120.92457999999999,17.89920151988692,30.177687069540465,11.488120950323973,13.198704103671707,1009
Jul-14-2019 00:33:15,91.428,16.54000000000002,31.1711866,-120.92462499999999,17.89920151988692,31.111608275603704,11.682505399568033,15.161987041036715,1010
Jul-14-2019 00:33:30,91.508,16.600000000000023,31.1712183,-120.9246816,7.895358416902745,37.71781165346209,12.79049676025918,13.509719222462202,1010
Jul-14-2019 00:33:45,91.668,16.640000000000043,31.171243299999997,-120.924735,1.3980170201192088,36.4000087246612,12.187904967602593,14.20950323974082,1010
Jul-14-2019 00:34:00,92.148,16.660000000000025,31.171323299999997,-120.92479829999999,355.6921992172151,32.807563349190936,11.488120950323973,14.403887688984883,1010
Jul-14-2019 00:34:15,92.548,16.650000000000034,31.171405,-120.9248666,357.6918219222217,24.740317593748948,12.285097192224622,8.941684665226783,1010
Jul-14-2019 00:34:30,92.464,16.660000000000025,31.1714533,-120.92492159999999,10.79452486026471,32.068447793472174,11.682505399568033,15.123110151187905,1010
Jul-14-2019 00:34:45,92.784,16.750000000000057,31.171478299999997,-120.924965,9.195972611849713,28.6708080683464,12.79049676025918,14.4622030237581,1010
Jul-14-2019 00:35:00,92.944,16.710000000000036,31.1715016,-120.9249916,357.1933486404579,18.741449478729226,11.779697624190065,6.842332613390929,1010
Jul-14-2019 00:35:15,93.184,16.57000000000005,31.171545,-120.9250383,1.9996227050065731,20.030604517773583,12.98488120950324,10.12742980561555,1010
Jul-14-2019 00:35:30,93.184,16.640000000000043,31.1716166,-120.9250866,4.297183463481174,28.07493196141034,12.382289416846653,10.185745140388768,1010
Jul-14-2019 00:35:45,93.34,16.710000000000036,31.171696599999997,-120.925135,359.49090939893244,24.402272494621762,11.8963282937365,8.941684665226783,1010
Jul-14-2019 00:36:00,93.264,16.690000000000055,31.171766599999998,-120.92517,15.699043586584558,28.73383342581079,13.295896328293736,15.958963282937367,1010
Jul-14-2019 00:36:15,92.624,16.680000000000007,31.171834999999998,-120.9252216,15.796446411756795,34.268605726774545,13.198704103671707,18,1010
Jul-14-2019 00:36:30,91.828,16.560000000000002,31.171895,-120.925265,22.49432303683612,37.17923132603912,12.693304535637148,15.764578833693305,1010
Jul-14-2019 00:36:45,92.548,16.670000000000016,31.1719433,-120.92532999999999,15.899578814880346,38.49703425484002,12.98488120950324,15.103671706263498,1010
Jul-14-2019 00:37:00,93.976,16.83000000000004,31.1719816,-120.9253816,17.996604345059158,42.542116288463625,10.982721382289418,13.043196544276457,1010
Jul-14-2019 00:37:15,94.772,16.880000000000052,31.1720166,-120.9254366,9.69444589361353,33.51803101515316,11.8963282937365,15.68682505399568,1010
Jul-14-2019 00:37:30,94.056,16.77000000000004,31.172076599999997,-120.92550659999999,7.196349906843141,32.33773795718366,13.898488120950324,17.06695464362851,1010